Location: Cheching
(60.0667°N, 164.2167°W)
Time: 02:52:04
(UTC+00:00)

UNISAT 6 - Pass Details

Date: 24 January 2021
Orbit: 607 x 687 km, 97.7° (Epoch: 05 March)

Event Time Altitude Azimuth Distance (km) Brightness Sun altitude
Rises 16:31:31 0° 139° (SE) 2,881 ? -21.1°
Reaches altitude 10° 16:33:45 10° 133° (SE) 1,988 ? -20.8°
Maximum altitude 16:37:49 42° 62° (ENE) 900 ? -20.3°
Drops below altitude 10° 16:42:00 10° 352° (N) 2,041 ? -19.8°
Enters shadow 16:43:37 - 347° (NNW) 2,685 ? -19.6°
